Torna al catalogo

COSMOS 1750

AttivoNavigazioneLEO
NORAD 16760·PAYLOAD·🇷🇺 Russia

Lanciato Jun 6, 1986 da Plesetsk Cosmodrome

Loading…

Prossimi Passaggi (prossime 24 ore)

TLE

AggiornatoSource: Space-Track

Epoca: Sep 14, 2026, 13:47 UTC

1 16760U 86042C   26257.57432037  .00000003  00000-0  11319-3 0  9994
2 16760  74.0217 337.3550 0038878  83.5600 340.8045 12.56168490846830

Traccia COSMOS 1750 in tempo reale con AllMySat

Download on the App Store